NOAA 16 DEB, 41153

Orbit data source: Space-Track

NOAA 16 DEB, 41153 is space debris in SSO originally from a launch on Thu, 21 Sep 2000 UTC launched from the Air Force Western Test Range (AFWTR). Debris objects in space refer to the collection of defunct objects orbiting the Earth. Examples of debris include non-operational satellites, rocket bodies, and fragments generated from explosions, collisions, or faulty payload assembly.

Loading next visibility...
Identifier
41153, 2000-055CL
Orbit
SSO
Country
Flag of USUS
Related business
Manufacturer
Unknown
Mission
Spacecraft
Bus & Motor
Unknown
Mass
Unknown
Launch date (UTC)
2000-09-21 (26 years ago)
Launch vehicle
Unknown
Launch site
Air Force Western Test Range (AFWTR)
Object type
Payload
Rocket body
Debris
Shape & HBR
Unknown shape, 0.1 m
Radar Cross Section
Medium (>0.1 m² and <1 m²)

Expand to show TLE details & history
Last TLE update: 3 days ago

TLE from 3 days ago
0 NOAA 16 DEB
1 41153U 00055CL  26170.56000270  .00003946  00000-0  13044-2 0  9996
2 41153  98.7910 286.5942 0018476 134.7043 225.5652 14.38469765547055
Epoch: 2026-06-19T13:26Z
TLE epoch observation values (Epoch: 2026-06-19T13:26:24.233Z)
Latitude
Longitude
177.206°
Altitude
775.748 km
Speed
7.461 km/s
True Right ascension
19h 06m 22s
True Declination
0° 00' 00"
Sunlit
Object was in full shadow at epoch
Visualization orbit readout
Latitude
Unknown
Longitude
Unknown
Altitude
Unknown
Speed
Unknown
Apparent Right ascension
Unknown
Apparent Declination
Unknown
Sunlit
N/A
Visualization observer readout
Local Sidereal Time
23:27:13
Azimuth
Unknown
Elevation
Unknown
Doppler factor
Unknown
Orbital elements
Apogee altitude
773.886 km
Perigee altitude
747.507 km
Semi-major axis
7,138.834 km
Eccentricity
0.00185
Inclination
98.791°
RAAN
286.5942°
Arg. of periapsis
134.7043°
True anomaly
225.41427°
Mean anomaly
225.5652°
Eccentric anomaly
225.48971°
Mean motion
3.59834 °/min
Orbital period
100.05 mins
BSTAR
0.0013044
Loading maneuver chart data...
Computing Atmospheric mass density...
Loading historical data...
Loading historical data...
Loading historical data...
Loading historical data...
Loading historical data...
Loading historical data...
Loading historical data...

Documentation

Showing up to 5 results
|